User: anonymous   Login
Location: Peebles
(55.6412°N, 3.1714°W)
Time: 23:58:05
(UTC+00:00)
Language:

Cosmos 1605 Rocket - Orbit

View from above orbital plane
View from above orbital plane
View from above satellite
View from above satellite

Ground track
Ground track

The orbit data is extracted from the following two-line orbital elements,

1 15360U 84109B   21331.56826234 -.00000012  00000-0 -27161-4 0  9999
2 15360  82.9382 281.6213 0040968 188.0773 171.9729 13.76780474865094
Epoch (UTC): 27 November 2021 13:38:17
Eccentricity: 0.0040968
inclination: 82.9382°
perigee height: 945 km
apogee height: 1005 km
right ascension of ascending node: 281.6213°
argument of perigee: 188.0773°
revolutions per day: 13.76780474
mean anomaly at epoch: 171.9729°
orbit number at epoch: 86509

The dashed part of the orbit path shows where the satellite is in the earth's shadow,  

DLR